Regional Weather Roundup
Issued by NWS

Home | Current Version | Previous Version | Graphics & Text | Print | Product List | Glossary On
Versions: 1 2 3 4 5 6 7 8 9 10 11 12 13 14 15 16 17 18 19 20 21 22 23 24 25 26 27 28 29 30 31 32 33 34 35 36 37 38 39 40 41 42 43 44 45 46 47 48 49 50
000
ASUS45 KBOU 021207
RWRCO

WEATHER ROUNDUP FOR COLORADO
NATIONAL WEATHER SERVICE DENVER/BOULDER CO
600 AM MDT WED SEP 02 2015

NOTE: "FAIR" INDICATES FEW OR NO CLOUDS BELOW 12000 FEET WITH NO
SIGNIFICANT WEATHER AND/OR OBSTRUCTIONS TO VISIBILITY.

COZ001>005-013-030-031-021300-
...NORTHWEST COLORADO...

CITY           SKY/WX    TMP DP  RH WIND       PRES   REMARKS
CRAIG          CLEAR     43  39  86 CALM      30.23S
HAYDEN         NOT AVBL
MEEKER         CLEAR     48  44  86 E3        30.24S
MOUNT WERNER   NOT AVBL
STEAMBOAT SPGS CLEAR     46  41  84 CALM      30.28R
WALDEN         CLEAR     41  34  75 SE5       30.33S
$$

COZ006>008-011-021300-
...WEST CENTRAL VALLEYS...

CITY           SKY/WX    TMP DP  RH WIND       PRES   REMARKS
GRAND JUNCTION CLEAR     60  50  69 E12       30.14S
MONTROSE       PTCLDY    55  48  77 SE9       30.23S
EAGLE          CLEAR     46  45  93 CALM      30.34R
RIFLE          CLEAR     52  48  86 CALM      30.23S
DELTA          NOT AVBL
NUCLA          PTCLDY    57  45  62 SE3       30.25S
$$

COZ017>023-064>068-021300-
...SOUTHWEST COLORADO...

CITY           SKY/WX    TMP DP  RH WIND       PRES   REMARKS
DURANGO        MOCLDY    50  43  77 NE5       30.27S
CORTEZ         CLEAR     52  46  80 SE7       30.21S
PAGOSA SPRINGS MOCLDY    52  45  75 CALM      30.34S
TELLURIDE      PTCLDY    50  45  83 SE6       30.45F
WOLF CREEK PAS NOT AVBL
$$

COZ009-010-012-014-032>034-037-058>063-021300-
...CENTRAL COLORADO...

CITY           SKY/WX    TMP DP  RH WIND       PRES   REMARKS
ASPEN          CLEAR     45  42  89 CALM      30.34F
BUENA VISTA    NOT AVBL
COPPER MTN     CLEAR     45  32  61 W15       30.60R
BERTHOUD PASS  FAIR      37  27  65 NW24G35   30.60R
COTTONWOOD PAS PTCLDY    52  39  62 NW5       30.45F
GUNNISON       CLEAR     45  41  87 CALM      30.41S
KREMMLING      CLEAR     43  39  87 CALM      30.36R
LEADVILLE      PTCLDY    37  37 100 CALM      30.46S
MONARCH PASS   PTCLDY    41  37  87 W21       30.69S
SALIDA         PTCLDY    53  45  75 NW6       30.41S
SUNLIGHT       CLEAR     46  41  81 CALM      30.55R
WILKERSON PASS PTCLDY    45  36  70 W13       30.55S
$$

COZ069>075-021300-
...SAN LUIS VALLEY/SANGRE DE CRISTO MOUNTAINS...

CITY           SKY/WX    TMP DP  RH WIND       PRES   REMARKS
ALAMOSA        MOCLDY    44  41  89 W5        30.33R
LA VETA PASS   PTCLDY    48  39  71 S16       30.46S
SAGUACHE       PTCLDY    52  43  71 NW12      30.35S
$$

COZ035-036-038>040-021300-
...NORTHERN COLORADO FRONT RANGE...

CITY           SKY/WX    TMP DP  RH WIND       PRES   REMARKS
DENVER INTL AP MOCLDY    64  44  48 SW8       30.08R
DMNS CITY PARK   N/A     64  44  49 NE5G12    30.08R
AURORA         PTCLDY    64  44  48 SW10      30.10R
FRONT RANGE AP NOT AVBL
ERIE MUNI ARPT PTCLDY    55  48  77 CALM      30.06R
BOULDER MUN AP PTCLDY    63  43  48 N3        30.07R
CENTENNIAL     MOCLDY    66  42  41 SW12      30.12R
BROOMFIELD     PTCLDY    70  39  32 NW3       30.09S
FORT COLLINS   PTCLDY    61  45  55 CALM      30.06F
LONGMONT       PTCLDY    59  46  62 CALM      30.07S
$$

COZ041-046-047-076>085-087-088-021300-
...PIKES PEAK/PALMER DIVIDE AND SOUTHERN FOOTHILLS...

CITY           SKY/WX    TMP DP  RH WIND       PRES   REMARKS
COLO. SPRINGS  MOCLDY    64  44  48 N6        30.16S
A. F. ACADEMY  CLEAR     65  37  35 W6        30.17S
ELLICOTT       CLEAR    N/A N/A N/A CALM      30.14R
FALCON         CLEAR     63  38  40 MISG      30.20S
FORT CARSON    CLEAR     56  47  72 N7        30.12S
LIMON          PTCLDY    56  49  77 NW8       30.08R
MONUMENT HILL  CLEAR     55  41  58 W12       30.21S
TRINIDAD       CLEAR     56  47  71 NW10      30.15F
$$

COZ042>045-048>051-090-091-021300-
...NORTHEAST COLORADO...

CITY           SKY/WX    TMP DP  RH WIND       PRES   REMARKS
GREELEY ARPT   PTCLDY    54  46  76 NW7       30.05R
AKRON          PTCLDY    64  48  56 W12       30.01F
BURLINGTON     CLEAR     60  54  80 SW8       30.01R
WRAY           CLOUDY    58  53  83 SW3       29.96S
STERLING       NOT AVBL
HOLYOKE        CLEAR     61  52  72 W6        29.95S
FORT MORGAN    NOT AVBL
$$

COZ086-089-092>099-021300-
...SOUTHEAST COLORADO...

CITY           SKY/WX    TMP DP  RH WIND       PRES   REMARKS
PUEBLO         PTCLDY    64  48  56 CALM      30.06S
LA JUNTA       CLEAR     65  50  58 W8        30.01S
LAMAR          CLEAR     59  52  77 SW9       29.98S
SPRINGFIELD      N/A     62  52  69 W9        30.04S
$$




USA.gov is the U.S. government's official web portal to all federal, state and local government web resources and services.